TimeCDT,TemperatureF,Dew PointF,Humidity,Sea Level PressureIn,VisibilityMPH,Wind Direction,Wind SpeedMPH,Gust SpeedMPH,PrecipitationIn,Events,Conditions,WindDirDegrees,DateUTC
12:53 AM,69.1,46.0,44,30.07,10.0,East,6.9,-,N/A,,Clear,100,2013-07-03 05:53:00
1:53 AM,70.0,48.9,47,30.06,10.0,SE,9.2,-,N/A,,Clear,130,2013-07-03 06:53:00
2:53 AM,64.0,48.9,58,30.06,10.0,SSE,5.8,-,N/A,,Clear,160,2013-07-03 07:53:00
3:53 AM,64.0,48.9,58,30.05,10.0,SSE,3.5,-,N/A,,Clear,150,2013-07-03 08:53:00
4:53 AM,63.0,48.9,60,30.05,10.0,SSE,4.6,-,N/A,,Clear,150,2013-07-03 09:53:00
5:53 AM,62.1,48.0,60,30.05,10.0,Calm,Calm,-,N/A,,Clear,0,2013-07-03 10:53:00
6:53 AM,62.1,48.0,60,30.06,10.0,SE,3.5,-,N/A,,Clear,140,2013-07-03 11:53:00
7:53 AM,69.1,48.0,47,30.06,10.0,Calm,Calm,-,N/A,,Scattered Clouds,0,2013-07-03 12:53:00
8:53 AM,75.0,44.1,33,30.07,10.0,South,6.9,-,N/A,,Clear,190,2013-07-03 13:53:00
9:53 AM,78.1,44.1,30,30.06,10.0,SSW,6.9,-,N/A,,Clear,210,2013-07-03 14:53:00
10:53 AM,80.1,43.0,27,30.05,10.0,SW,9.2,-,N/A,,Clear,230,2013-07-03 15:53:00
11:53 AM,82.0,42.1,24,30.03,10.0,SSE,4.6,-,N/A,,Clear,160,2013-07-03 16:53:00
12:53 PM,86.0,41.0,20,30.01,10.0,Variable,3.5,-,N/A,,Clear,0,2013-07-03 17:53:00
1:53 PM,87.1,39.0,18,29.99,10.0,Variable,5.8,-,N/A,,Scattered Clouds,0,2013-07-03 18:53:00
2:53 PM,88.0,39.0,18,29.97,10.0,Variable,5.8,-,N/A,,Scattered Clouds,0,2013-07-03 19:53:00
3:53 PM,88.0,39.9,18,29.96,10.0,Variable,6.9,-,N/A,,Scattered Clouds,0,2013-07-03 20:53:00
4:53 PM,87.1,39.9,19,29.94,10.0,SSW,6.9,16.1,N/A,,Partly Cloudy,200,2013-07-03 21:53:00
5:53 PM,87.1,39.9,19,29.92,10.0,South,11.5,-,N/A,,Scattered Clouds,180,2013-07-03 22:53:00
6:38 PM,86.0,41.0,20,29.97,10.0,South,6.9,-,N/A,,Mostly Cloudy,170,2013-07-03 23:38:00
6:53 PM,84.0,42.1,23,29.92,10.0,SSW,16.1,24.2,N/A,,Partly Cloudy,200,2013-07-03 23:53:00
7:53 PM,84.9,42.1,22,29.90,10.0,SSE,11.5,-,N/A,,Mostly Cloudy,150,2013-07-04 00:53:00
8:53 PM,81.0,43.0,26,29.91,10.0,SE,10.4,-,N/A,,Clear,130,2013-07-04 01:53:00
9:53 PM,78.1,46.9,33,29.92,10.0,SE,11.5,-,N/A,,Clear,130,2013-07-04 02:53:00
10:53 PM,73.0,48.0,41,29.95,10.0,ESE,9.2,-,N/A,,Clear,120,2013-07-04 03:53:00
11:53 PM,73.0,48.0,41,29.95,10.0,SE,9.2,-,N/A,,Clear,130,2013-07-04 04:53:00